Zurück zum Katalog

STARLINK-34726

AktivKommunikationSSO
NORAD 64935·PAYLOAD·🇺🇸 United States

Gestartet Jul 26, 2025 von Vandenberg Space Force Base

Loading…

Nächste Überflüge (nächste 24 Stunden)

TLE

AktuellSource: CelesTrak SupGP

Epoche: Sep 14, 2026, 22:47 UTC

1 64935C 25158D   26257.94979167  .00081838  00000+0  25422-2 0  2573
2 64935  97.2840 116.3462 0001928 100.2651 351.7041 15.33375284    10

Verfolge STARLINK-34726 in Echtzeit mit AllMySat

Download on the App Store